{"data":{"norad_id":39270,"intl_designator":"2013-055F","name":"POPACS 3","alt_names":[],"object_type":"PAYLOAD","status":"ACTIVE","operator":null,"country":"US","launch_date":"2013-09-29","launch_site_code":"AFWTR","launch_vehicle":null,"mission":null,"orbit_class":"UNKNOWN","rcs_meters":0.0184,"size_class":null,"mass_kg":null,"dimensions":null,"purposes":["tech_demo"],"wikipedia_slug":null,"has_3d_model":false,"image_url":null,"decayed_at":null,"tle_current":{"epoch":"2026-09-19T23:10:10.058880Z","epoch_age_seconds":60569,"freshness":"FRESH","line1":"1 39270U 13055F   26262.96539420  .00007527  00000+0  17556-3 0  9998","line2":"2 39270  80.9996 126.2880 0546226 140.7045 223.5161 14.57504325652354","mean_motion":14.57504325,"eccentricity":0.0546226,"inclination_deg":80.9996,"raan_deg":126.288,"arg_perigee_deg":140.7045,"mean_anomaly_deg":223.5161,"bstar":0.00017556,"rev_number":65235,"period_min":98.799020716457,"perigee_km":314.54960742698,"apogee_km":1087.9379780033,"semimajor_km":7079.3807927151,"source":"CELESTRAK","updated_at":"2026-09-20T09:00:48.021926Z"}}}